Location: A�t �Alizem
(31.2076°N, 8.7872°W)
Time: 08:39:40
(UTC+00:00)

X-37B - Visible Passes

Search period start: 18 September 2021 00:00
Search period end: 28 September 2021 00:00
Orbit: 381 x 393 km, 45.0° (Epoch: 29 August)

Date Brightness Start Highest point End Pass type
(mag) Time Alt. Az. Time Alt. Az. Time Alt. Az.
18 Sep 1.5 05:31:54 10° SW 05:34:55 45° SE 05:37:57 10° ENE visible
19 Sep 2.8 04:36:41 20° SE 04:36:41 20° SE 04:39:03 10° E visible
20 Sep 0.5 05:13:41 38° WSW 05:14:42 74° NW 05:17:52 10° NE visible
21 Sep 3.3 04:18:17 19° ENE 04:18:17 19° ENE 04:19:25 10° ENE visible
21 Sep 2.4 05:50:44 10° WNW 05:53:09 20° NNW 05:55:34 10° NNE visible
22 Sep 1.8 04:55:05 32° N 04:55:05 32° N 04:57:32 10° NE visible
23 Sep 3.0 05:31:48 10° NW 05:33:14 13° NNW 05:34:48 10° N visible
24 Sep 3.3 04:36:10 14° NNE 04:36:10 14° NNE 04:37:01 10° NNE visible
